Flag for U.S.A. Weather past 2 weeks in Frankfort, Kentucky, U.S.A.

Now
44 °F

Sunny.


Feels Like: 41 °F
Forecast: 38 / 64 °F
Wind: 6 mph from Northeast

Location: Capital City Airport

Current Time: Apr 28, 2015 at 8:10:46 AM

Latest Report: Apr 28, 2015 at 7:53 AM


Visibility: 10 mi

Pressure: 30.07 "Hg

Humidity: 71%

Dew point: 35 °F

Location of FrankfortLocation

Historic Weather in Frankfort — Graph

°F

Frankfort temperature yesterday

Maximum temperature yesterday: 64 °F (at 4:53 PM)
Minimum temperature yesterday: 35 °F (at 6:53 AM)
Average temperature yesterday: 51 °F

Past Weeks' High & Low Weather Summary

 TemperatureHumidityPressure
High79 °F (Apr 13, 3:53 PM)96% (Apr 17, 8:01 AM)30.15 "Hg (Apr 17, 8:01 AM)
Low30 °F (Apr 24, 4:53 AM)16% (Apr 23, 5:53 PM)29.44 "Hg (Apr 19, 7:53 PM)
Average56 °F65%29.92 "Hg
* Reported Apr 13 6:53 AM — Apr 28 6:53 AM, Frankfort, Weather by CustomWeather, © 2015

Note: Actual official high and low records may vary slightly from our data, if they occured in-between our weather recording intervals... More about our weather records

Advertising

Frankfort weather history for previous 24 hours

 ConditionsComfort  
Time TempWeatherWind HumidityBarometerVisibility
6:53 AM
Tue, Apr 28
41 °FClear.5 mph80%30.06 "Hg10 mi
5:53 AM42 °FClear.5 mph79%30.06 "Hg10 mi
4:53 AM42 °FClear.3 mph79%30.06 "Hg10 mi
3:53 AM45 °FClear.3 mph71%30.04 "Hg10 mi
2:53 AM45 °FClear.6 mph71%30.04 "Hg10 mi
1:53 AM47 °FClear.8 mph66%30.04 "Hg10 mi
12:53 AM48 °FClear.8 mph66%30.04 "Hg10 mi
11:53 PM
Mon, Apr 27
50 °FClear.6 mph61%30.03 "Hg10 mi
10:53 PM52 °FClear.7 mph57%30.01 "Hg10 mi
9:53 PM54 °FClear.7 mph53%30.00 "Hg10 mi
8:53 PM56 °FSunny.12 mph47%29.98 "Hg10 mi
7:53 PM59 °FPassing clouds.10 mph41%29.97 "Hg10 mi
6:53 PM62 °FOvercast.8 mph37%29.96 "Hg10 mi
5:53 PM62 °FOvercast.8 mph35%29.95 "Hg10 mi
4:53 PM64 °FOvercast.13 mph33%29.95 "Hg10 mi
3:53 PM63 °FPartly sunny.9 mph35%29.95 "Hg10 mi
2:53 PM63 °FScattered clouds.9 mph35%29.95 "Hg10 mi
1:53 PM61 °FPartly sunny.9 mph36%29.96 "Hg10 mi
12:53 PM59 °FPartly sunny.6 mph39%29.99 "Hg10 mi
11:53 AM57 °FPartly sunny.5 mph41%29.99 "Hg10 mi
10:53 AM54 °FSunny.3 mph51%29.97 "Hg10 mi
9:53 AM51 °FSunny.3 mph61%29.97 "Hg10 mi
8:53 AM47 °FSunny.6 mph71%29.99 "Hg10 mi
Weather by CustomWeather, © 2015

See weather overviewHow to use our weather pages